When you browse on this site, cookies collect data to enhance your experience and personalize the content and advertising you see.
Visit our Privacy Policy to learn more. By continuing to use the site, you agree to this use of cookies and data.

Météo par heure à Dzerzhinsk

Ce jour, 25 Septembre, Vendredi

Heure Température Précipitation Vent Pression Humidité
00:00 +17°C° 0 mm 3 m/s 747 mmHg 39%
01:00 +17°C° 0 mm 3 m/s 747 mmHg 40%
02:00 +17°C° 0 mm 3 m/s 747 mmHg 41%
03:00 +16°C° 0 mm 3 m/s 747 mmHg 43%
04:00 +16°C° 0 mm 3 m/s 747 mmHg 46%
05:00 +14°C° 0 mm 3 m/s 747 mmHg 49%
06:00 +14°C° 0 mm 3 m/s 747 mmHg 52%
07:00 +17°C° 0 mm 4 m/s 747 mmHg 48%
08:00 +19°C° 0 mm 4 m/s 747 mmHg 45%
09:00 +21°C° 0 mm 5 m/s 747 mmHg 42%
10:00 +22°C° 0 mm 5 m/s 747 mmHg 39%
11:00 +25°C° 0 mm 5 m/s 746 mmHg 36%
12:00 +26°C° 0 mm 5 m/s 746 mmHg 32%
13:00 +27°C° 0 mm 5 m/s 746 mmHg 31%
14:00 +27°C° 0 mm 5 m/s 746 mmHg 30%
15:00 +28°C° 0 mm 4 m/s 746 mmHg 29%
16:00 +27°C° 0 mm 4 m/s 745 mmHg 32%
17:00 +25°C° 0 mm 3 m/s 745 mmHg 36%
18:00 +24°C° 0 mm 3 m/s 745 mmHg 39%
19:00 +22°C° 0 mm 3 m/s 745 mmHg 40%
20:00 +21°C° 0 mm 4 m/s 745 mmHg 41%
21:00 +20°C° 0 mm 4 m/s 745 mmHg 42%
22:00 +20°C° 0 mm 4 m/s 745 mmHg 42%
23:00 +19°C° 0 mm 4 m/s 745 mmHg 42%

Demain, 26 Septembre, Samedi

Heure Température Précipitation Vent Pression Humidité
00:00 +19°C° 0 mm 4 m/s 744 mmHg 43%
01:00 +18°C° 0 mm 4 m/s 744 mmHg 43%
02:00 +18°C° 0 mm 4 m/s 744 mmHg 43%
03:00 +18°C° 0 mm 4 m/s 744 mmHg 44%
04:00 +17°C° 0 mm 4 m/s 744 mmHg 45%
05:00 +15°C° 0 mm 4 m/s 744 mmHg 47%
06:00 +15°C° 0 mm 4 m/s 744 mmHg 48%
07:00 +17°C° 0 mm 5 m/s 744 mmHg 44%
08:00 +19°C° 0 mm 6 m/s 744 mmHg 39%
09:00 +21°C° 0 mm 6 m/s 744 mmHg 35%
10:00 +23°C° 0 mm 7 m/s 744 mmHg 29%
11:00 +26°C° 0 mm 7 m/s 744 mmHg 23%
12:00 +28°C° 0 mm 8 m/s 744 mmHg 18%
13:00 +29°C° 0 mm 8 m/s 744 mmHg 17%
14:00 +29°C° 0 mm 7 m/s 744 mmHg 17%
15:00 +30°C° 0 mm 7 m/s 743 mmHg 16%
16:00 +29°C° 0 mm 7 m/s 743 mmHg 18%
17:00 +28°C° 0 mm 6 m/s 743 mmHg 19%
18:00 +27°C° 0 mm 5 m/s 743 mmHg 21%
19:00 +25°C° 0 mm 5 m/s 743 mmHg 25%
20:00 +23°C° 0 mm 6 m/s 744 mmHg 29%
21:00 +22°C° 0 mm 6 m/s 744 mmHg 33%
22:00 +22°C° 0 mm 6 m/s 744 mmHg 34%
23:00 +21°C° 0 mm 7 m/s 744 mmHg 35%

Après-demain, 27 Septembre, Dimanche

Heure Température Précipitation Vent Pression Humidité
00:00 +21°C° 0 mm 7 m/s 744 mmHg 36%
01:00 +20°C° 0 mm 7 m/s 744 mmHg 37%
02:00 +20°C° 0 mm 7 m/s 745 mmHg 39%
03:00 +18°C° 0 mm 7 m/s 745 mmHg 40%
04:00 +17°C° 0 mm 7 m/s 745 mmHg 42%
05:00 +17°C° 0 mm 7 m/s 745 mmHg 43%
06:00 +16°C° 0 mm 7 m/s 745 mmHg 44%
07:00 +17°C° 0 mm 7 m/s 745 mmHg 44%
08:00 +17°C° 0 mm 8 m/s 745 mmHg 44%
09:00 +18°C° 0 mm 8 m/s 746 mmHg 44%
10:00 +21°C° 0 mm 8 m/s 746 mmHg 41%
11:00 +23°C° 0 mm 8 m/s 746 mmHg 38%
12:00 +26°C° 0 mm 8 m/s 746 mmHg 35%
13:00 +27°C° 0 mm 8 m/s 746 mmHg 33%
14:00 +28°C° 0 mm 8 m/s 746 mmHg 31%
15:00 +29°C° 0 mm 8 m/s 746 mmHg 29%
16:00 +28°C° 0 mm 7 m/s 746 mmHg 31%
17:00 +27°C° 0 mm 6 m/s 746 mmHg 33%
18:00 +27°C° 0 mm 5 m/s 746 mmHg 35%
19:00 +26°C° 0.1 mm 6 m/s 746 mmHg 36%
20:00 +24°C° 0.1 mm 6 m/s 746 mmHg 37%
21:00 +23°C° 0.1 mm 6 m/s 746 mmHg 39%
22:00 +22°C° 0.2 mm 6 m/s 747 mmHg 41%
23:00 +22°C° 0.2 mm 6 m/s 747 mmHg 43%

28 Septembre, Lundi

Heure Température Précipitation Vent Pression Humidité
00:00 +21°C° 0.2 mm 6 m/s 747 mmHg 45%
01:00 +20°C° 0.2 mm 6 m/s 747 mmHg 47%
02:00 +20°C° 0.2 mm 6 m/s 747 mmHg 49%
03:00 +19°C° 0.2 mm 6 m/s 747 mmHg 51%
04:00 +17°C° 0 mm 6 m/s 747 mmHg 54%
05:00 +17°C° 0 mm 6 m/s 747 mmHg 56%
06:00 +16°C° 0 mm 6 m/s 748 mmHg 59%
07:00 +17°C° 0.1 mm 6 m/s 748 mmHg 57%
08:00 +17°C° 0.1 mm 6 m/s 748 mmHg 56%
09:00 +19°C° 0.1 mm 6 m/s 748 mmHg 55%
10:00 +20°C° 0.2 mm 6 m/s 748 mmHg 53%
11:00 +21°C° 0.2 mm 5 m/s 748 mmHg 51%
12:00 +22°C° 0.2 mm 5 m/s 748 mmHg 49%
13:00 +23°C° 0.1 mm 4 m/s 748 mmHg 47%
14:00 +23°C° 0.1 mm 4 m/s 748 mmHg 45%
15:00 +25°C° 0.1 mm 4 m/s 748 mmHg 44%
16:00 +24°C° 0.1 mm 3 m/s 748 mmHg 46%
17:00 +23°C° 0.1 mm 2 m/s 748 mmHg 48%
18:00 +23°C° 0.1 mm 2 m/s 748 mmHg 50%
19:00 +21°C° 0 mm 2 m/s 748 mmHg 50%
20:00 +21°C° 0 mm 2 m/s 748 mmHg 51%
21:00 +20°C° 0 mm 2 m/s 748 mmHg 52%
22:00 +20°C° 0 mm 3 m/s 748 mmHg 49%
23:00 +20°C° 0 mm 3 m/s 748 mmHg 47%

29 Septembre, Mardi

Heure Température Précipitation Vent Pression Humidité
00:00 +20°C° 0 mm 3 m/s 748 mmHg 44%
01:00 +20°C° 0 mm 4 m/s 748 mmHg 45%
02:00 +20°C° 0 mm 4 m/s 748 mmHg 46%
03:00 +20°C° 0 mm 4 m/s 748 mmHg 47%
04:00 +19°C° 0 mm 4 m/s 748 mmHg 52%
05:00 +17°C° 0 mm 5 m/s 748 mmHg 57%
06:00 +16°C° 0 mm 5 m/s 748 mmHg 62%
07:00 +16°C° 0 mm 5 m/s 747 mmHg 62%
08:00 +17°C° 0 mm 5 m/s 747 mmHg 62%
09:00 +17°C° 0 mm 6 m/s 747 mmHg 62%
10:00 +19°C° 0 mm 6 m/s 747 mmHg 57%
11:00 +21°C° 0 mm 6 m/s 747 mmHg 52%
12:00 +22°C° 0 mm 6 m/s 746 mmHg 47%
13:00 +23°C° 0 mm 6 m/s 746 mmHg 45%
14:00 +23°C° 0 mm 7 m/s 745 mmHg 43%
15:00 +23°C° 0 mm 7 m/s 745 mmHg 42%
16:00 +23°C° 0.1 mm 6 m/s 745 mmHg 43%
17:00 +23°C° 0.1 mm 6 m/s 744 mmHg 44%
18:00 +22°C° 0.1 mm 5 m/s 744 mmHg 45%
19:00 +22°C° 0.1 mm 6 m/s 743 mmHg 44%
20:00 +22°C° 0.1 mm 6 m/s 743 mmHg 44%
21:00 +21°C° 0.1 mm 7 m/s 743 mmHg 43%
22:00 +21°C° 0 mm 7 m/s 743 mmHg 43%
23:00 +21°C° 0 mm 7 m/s 742 mmHg 42%

30 Septembre, Mercredi

Heure Température Précipitation Vent Pression Humidité
00:00 +20°C° 0 mm 7 m/s 742 mmHg 42%
01:00 +18°C° 0.5 mm 7 m/s 741 mmHg 49%
02:00 +17°C° 0.5 mm 8 m/s 741 mmHg 55%
03:00 +15°C° 0.5 mm 8 m/s 741 mmHg 61%
04:00 +15°C° 0.4 mm 8 m/s 741 mmHg 60%
05:00 +15°C° 0.4 mm 8 m/s 741 mmHg 59%
06:00 +15°C° 0.4 mm 9 m/s 740 mmHg 58%
07:00 +15°C° 0.3 mm 9 m/s 740 mmHg 62%
08:00 +15°C° 0.3 mm 9 m/s 740 mmHg 66%
09:00 +15°C° 0.3 mm 9 m/s 740 mmHg 70%
10:00 +15°C° 1.3 mm 9 m/s 740 mmHg 73%
11:00 +15°C° 1.3 mm 9 m/s 740 mmHg 76%
12:00 +15°C° 1.3 mm 9 m/s 740 mmHg 79%
13:00 +16°C° 0.1 mm 9 m/s 740 mmHg 77%
14:00 +16°C° 0.1 mm 9 m/s 740 mmHg 75%
15:00 +17°C° 0.1 mm 9 m/s 740 mmHg 73%
16:00 +17°C° 0 mm 9 m/s 740 mmHg 71%
17:00 +17°C° 0 mm 8 m/s 740 mmHg 69%
18:00 +17°C° 0 mm 8 m/s 740 mmHg 67%
19:00 +17°C° 0.2 mm 7 m/s 740 mmHg 69%
20:00 +17°C° 0.2 mm 7 m/s 740 mmHg 72%
21:00 +17°C° 0.2 mm 7 m/s 740 mmHg 74%
22:00 +16°C° 0.3 mm 7 m/s 740 mmHg 76%
23:00 +16°C° 0.3 mm 7 m/s 741 mmHg 79%
Voir plus